Regional Weather Roundup
Issued by NWS

Home | Current Version | Previous Version | Text Only | Print | Product List | Glossary On
Versions: 1 2 3 4 5 6 7 8 9 10 11 12 13 14 15 16 17 18 19 20 21 22 23 24 25 26 27 28 29 30 31 32 33 34 35 36 37 38 39 40 41 42 43 44 45 46 47 48 49 50
000
ASUS43 KMPX 271301
RWRMN
WEATHER ROUNDUP FOR MINNESOTA
NATIONAL WEATHER SERVICE TWIN CITIES/CHANHASSEN MN
800 AM CDT MON APR 27 2015


NOTE: "FAIR" INDICATES FEW OR NO CLOUDS BELOW 12,000 FEET WITH NO
SIGNIFICANT WEATHER AND/OR OBSTRUCTIONS TO VISIBILITY. N/A MEANS
CURRENT SKY AND/OR WEATHER CONDITIONS ARE NOT AVAILABLE.

MNZ060>063-068>070-271400-
   Twin Cities Metro

CITY           SKY/WX    TMP DP  RH WIND       PRES   REMARKS
TWIN CITIES    SUNNY     48  30  49 N3        30.22R
ST PAUL        SUNNY     45  32  60 NW5       30.23R
CRYSTAL        SUNNY     45  30  55 NW3       30.22R
BLAINE         SUNNY     45  34  65 CALM      30.22R
LAKEVILLE      SUNNY     45  28  53 NE3       30.21R
EDEN PRAIRIE   SUNNY     47  29  49 N6        30.21R
SOUTH ST PAUL  SUNNY     47  30  52 N3        30.21S
LAKE ELMO      FAIR      45  30  57 NE6       30.22S
$$
MNZ001>005-007-008-013>017-022>024-027-028-271400-
   Northwest Minnesota

CITY           SKY/WX    TMP DP  RH WIND       PRES   REMARKS
BEMIDJI        SUNNY     40  32  73 CALM      30.21S
HALLOCK        PTSUNNY   46  25  42 CALM      30.20R
ROSEAU         MOSUNNY   46  28  49 S5        30.20R
WARROAD        MOSUNNY   41  30  65 CALM      30.21R
THIEF RVR FALL MOSUNNY   46  25  42 CALM      30.21R
CROOKSTON      PTSUNNY   46  27  46 S5        30.21R
FOSSTON        MOSUNNY   45  23  42 S5        30.21S
DETROIT LAKES  SUNNY     41  34  75 CALM      30.23R
MOORHEAD       MOSUNNY   45  23  42 S5        30.23R
PARK RAPIDS    SUNNY     40  31  70 CALM      30.21R
MAHNOMEN       FAIR      42  26  52 S5        30.21S
$$
MNZ006-009>011-018-025>026-271400-
   North Central Minnesota

CITY           SKY/WX    TMP DP  RH WIND       PRES   REMARKS
BAUDETTE       MOSUNNY   41  28  60 E3        30.21S
FLAG ISLAND    MOSUNNY   43  27  52 S6        30.20S
INTL FALLS     SUNNY     42  32  67 SE3       30.22S
WASKISH        SUNNY     39  30  70 CALM      30.21S
BIG FORK       SUNNY     37  28  70 CALM      30.21F
LONGVILLE      SUNNY     36  34  93 CALM      30.21R
GRAND RAPIDS   SUNNY     37  25  60 CALM      30.22R
CRANE LAKE     SUNNY     30  27  86 CALM      30.25S
ORR            SUNNY     36  25  64 CALM      30.20S
COOK           SUNNY     36  25  64 CALM      30.22S
WALKER         FAIR      33  28  83 CALM      30.21S
$$
MNZ012-019>021-037-271400-
   Northeast Minnesota

CITY           SKY/WX    TMP DP  RH WIND       PRES   REMARKS
DULUTH         SUNNY     43  29  57 NW6       30.21S
ELY            SUNNY     36  28  75 CALM      30.22S
HIBBING        SUNNY     38  26  62 CALM      30.22R
EVELETH        SUNNY     36  28  75 CALM      30.22S
DULUTH HARBOR  SUNNY     37  30  75 S3        30.24R
TWO HARBORS    SUNNY     48  28  46 NW5       30.20S
SILVER BAY     SUNNY     41  32  70 CALM      30.20S
GRAND MARAIS     N/A     51  28  41 N5        30.22R
G MARAIS ARPRT SUNNY     43  25  49 NW3       30.22R
$$
MNZ029>031-032-039>041-046>048-054>057-064-271400-
   West Central Minnesota

CITY           SKY/WX    TMP DP  RH WIND       PRES   REMARKS
FERGUS FALLS   SUNNY     43  30  61 SE3       30.24S
WHEATON        SUNNY     37  28  70 SE5       30.25R
MORRIS         SUNNY     43  30  61 CALM      30.22R
ALEXANDRIA     SUNNY     44  35  70 CALM      30.23R
ELBOW LAKE     FAIR      45  28  51 SE5       30.22R
WADENA         SUNNY     39  30  70 CALM      30.21S
GLENWOOD       SUNNY     45  30  57 CALM      30.23S
APPLETON       SUNNY     43  32  65 CALM      30.23R
BENSON         SUNNY     43  32  65 CALM      30.23R
ORTONVILLE     SUNNY     43  36  75 CALM      30.23R
MADISON        SUNNY     39  28  65 CALM      30.23R
WILLMAR        FAIR      45  36  70 CALM      30.24R
$$
MNZ033>034-036-042>043-049>051-058-059-271400-
   Central Minnesota

CITY           SKY/WX    TMP DP  RH WIND       PRES   REMARKS
ST CLOUD       SUNNY     42  28  57 CALM      30.22S
SAUK CENTRE    FAIR      36  31  84 CALM      30.23R
PAYNESVILLE    SUNNY     34  28  78 CALM      30.24R
AITKIN         SUNNY     37  30  75 CALM      30.21R
PINE RIVER     SUNNY     36  30  80 CALM      30.24S
BRAINERD       SUNNY     38  26  62 CALM      30.22R
STAPLES        SUNNY     36  30  80 CALM      30.22S
LONG PRAIRIE   FAIR      37  30  75 CALM      30.22S
LITTLE FALLS   SUNNY     37  32  81 CALM      30.22S
LITCHFIELD     SUNNY     45  32  61 CALM      30.23R
BUFFALO        SUNNY     43  30  61 CALM      30.23S
MAPLE LAKE     SUNNY     43  30  62 CALM      30.23S
$$
MNZ037-044-045-052-053-271400-
   East Central Minnesota

CITY           SKY/WX    TMP DP  RH WIND       PRES   REMARKS
PRINCETON      SUNNY     41  28  60 CALM      30.23S
MORA           SUNNY     37  28  70 CALM      30.24S
CAMBRIDGE      SUNNY     43  28  56 CALM      30.21R
RUSH CITY      SUNNY     40  29  64 CALM      30.23S
MOOSE LAKE     SUNNY     34  28  80 CALM      30.21S
HINCKLEY       FAIR      39  32  75 CALM      30.23S
CLOQUET        SUNNY     37  25  60 CALM      30.22R
MCGREGOR       SUNNY     34  30  86 E3        30.23R
$$
MNZ071>073-080-081-089-090-097-098-271400-
   Southwest Minnesota

CITY           SKY/WX    TMP DP  RH WIND       PRES   REMARKS
MONTEVIDEO     FAIR      43  28  56 CALM      30.25R
GRANITE FALLS  SUNNY     40  26  58 CALM      30.25R
CANBY          SUNNY     39  33  78 CALM      30.25R
MARSHALL       FAIR      41  25  52 NW3       30.23R
REDWOOD FALLS  SUNNY     45  26  47 CALM      30.23R
OLIVIA         SUNNY     41  23  48 CALM      30.22R
PIPESTONE      SUNNY     45  25  45 E3        30.22R
WINDOM         SUNNY     39  28  65 CALM      30.23R
WORTHINGTON    SUNNY     41  27  56 CALM      30.23S
JACKSON        SUNNY     43  28  56 CALM      30.22S
TRACY          SUNNY     44  24  45 W3        30.23R
SLAYTON        SUNNY     41  28  60 CALM      30.24R
$$
MNZ065>067-074>077-082>085-091>093-271400-
   South Central Minnesota

CITY           SKY/WX    TMP DP  RH WIND       PRES   REMARKS
MANKATO        SUNNY     46  27  46 E6        30.22R
NEW ULM        SUNNY     45  25  45 CALM      30.23R
ST JAMES       SUNNY     43  27  52 CALM      30.24R
FAIRMONT       SUNNY     43  28  56 N6        30.22R
GLENCOE        SUNNY     44  32  61 CALM      30.22R
FARIBAULT      SUNNY     45  28  53 NE5       30.21R
OWATONNA       SUNNY     45  28  53 CALM      30.21R
ALBERT LEA     SUNNY     43  28  56 CALM      30.21R
$$
MNZ078>079-086>088-094>096-271400-
   Southeast Minnesota

CITY           SKY/WX    TMP DP  RH WIND       PRES   REMARKS
ROCHESTER      SUNNY     44  28  53 NE8       30.21R
RED WING       SUNNY     43  30  61 CALM      30.20R
STANTON        SUNNY     42  32  70 CALM      30.20R
DODGE CENTER   SUNNY     43  30  61 N6        30.20R
WINONA         SUNNY     45  32  61 CALM      30.20R
AUSTIN         SUNNY     43  30  61 CALM      30.20R
PRESTON        SUNNY     40  29  64 CALM      30.20R
$$
ABBREVIATIONS USED IN REMARKS
   TC - TEMPERATURES IN CELSIUS
  WCI - WIND CHILL INDEX
   HX - HEAT INDEX
  VSB - VISIBILITY
$$



USA.gov is the U.S. government's official web portal to all federal, state and local government web resources and services.